AAL961 KOMA-KCLT

Flight info

Callsign AAL961
Flight time 2h 3m
Altitude 33000
Route OVR ROTTN PHEEB GVR TAFTT PARQR4
Aircraft MD82/M-SDFGIRWY/S

Departure

Time 2026-04-23 17:58
Airport Eppley Airfield (KOMA)

Arrival

Time 2026-04-23 20:01
Airport Charlotte Douglas International Airport (KCLT)
Time Latitude Longitude Altitude Speed Heading
2026-04-23 17:28 41.29708 -95.89792 985 ft 0 kts 334°
2026-04-23 17:39 41.29697 -95.89785 985 ft 4 kts 332°
2026-04-23 17:39 41.29675 -95.89772 992 ft 4 kts
2026-04-23 17:40 41.29656 -95.89777 988 ft 4 kts 29°
2026-04-23 17:40 41.29643 -95.89798 992 ft 4 kts 77°
2026-04-23 17:40 41.29640 -95.89833 991 ft 3 kts 90°
2026-04-23 17:40 41.29640 -95.89838 991 ft 0 kts 90°
2026-04-23 17:44 41.29640 -95.89835 991 ft 1 kts 90°
2026-04-23 17:45 41.29640 -95.89826 991 ft 1 kts 90°
2026-04-23 17:45 41.29641 -95.89791 993 ft 3 kts 89°
2026-04-23 17:45 41.29641 -95.89765 993 ft 3 kts 88°
2026-04-23 17:46 41.29630 -95.89704 990 ft 3 kts 134°
2026-04-23 17:46 41.29613 -95.89694 990 ft 2 kts 169°
2026-04-23 17:46 41.29589 -95.89691 988 ft 6 kts 173°
2026-04-23 17:47 41.29560 -95.89661 988 ft 5 kts 109°
2026-04-23 17:47 41.29567 -95.89627 987 ft 3 kts 50°
2026-04-23 17:47 41.29646 -95.89608 988 ft 10 kts 358°
2026-04-23 17:48 41.29731 -95.89607 988 ft 14 kts
2026-04-23 17:48 41.29828 -95.89607 988 ft 14 kts
2026-04-23 17:48 41.29929 -95.89607 990 ft 15 kts
2026-04-23 17:48 41.30035 -95.89606 989 ft 16 kts 359°
2026-04-23 17:49 41.30143 -95.89621 989 ft 16 kts 340°
2026-04-23 17:49 41.30234 -95.89698 993 ft 16 kts 324°
2026-04-23 17:49 41.30322 -95.89782 992 ft 15 kts 324°
2026-04-23 17:49 41.30411 -95.89865 988 ft 16 kts 324°
2026-04-23 17:50 41.30501 -95.89950 993 ft 16 kts 324°
2026-04-23 17:50 41.30691 -95.90132 989 ft 17 kts 324°
2026-04-23 17:50 41.30791 -95.90227 993 ft 18 kts 324°
2026-04-23 17:51 41.30893 -95.90323 993 ft 18 kts 324°
2026-04-23 17:51 41.30995 -95.90421 987 ft 18 kts 324°
2026-04-23 17:51 41.31184 -95.90600 988 ft 14 kts 324°
2026-04-23 17:52 41.31254 -95.90667 988 ft 0 kts 324°
2026-04-23 17:56 41.31255 -95.90668 986 ft 2 kts 324°
2026-04-23 17:56 41.31289 -95.90701 989 ft 6 kts 326°
2026-04-23 17:56 41.31329 -95.90694 992 ft 10 kts 40°
2026-04-23 17:57 41.31351 -95.90602 987 ft 13 kts 106°
2026-04-23 17:57 41.31275 -95.90509 995 ft 17 kts 144°
2026-04-23 17:57 41.30630 -95.89890 985 ft 114 kts 144°
2026-04-23 17:58 41.29854 -95.89124 1018 ft 161 kts 146°
2026-04-23 17:58 41.28908 -95.88206 1605 ft 170 kts 146°
2026-04-23 17:58 41.28036 -95.87269 2418 ft 176 kts 141°
2026-04-23 17:58 41.27331 -95.85667 2344 ft 226 kts 117°
2026-04-23 17:59 41.26542 -95.83898 3086 ft 215 kts 130°
2026-04-23 17:59 41.25644 -95.82272 3621 ft 227 kts 133°
2026-04-23 17:59 41.24565 -95.80649 4025 ft 240 kts 145°
2026-04-23 17:59 41.23163 -95.79383 4519 ft 249 kts 156°
2026-04-23 18:00 41.21630 -95.78197 4975 ft 260 kts 154°
2026-04-23 18:00 41.20097 -95.76878 5584 ft 265 kts 150°
2026-04-23 18:00 41.18583 -95.75435 6261 ft 268 kts 148°
2026-04-23 18:00 41.17160 -95.73838 6913 ft 276 kts 135°
2026-04-23 18:01 41.16294 -95.71525 7422 ft 295 kts 107°
2026-04-23 18:01 41.16059 -95.68768 8002 ft 306 kts 99°
2026-04-23 18:01 41.15928 -95.65910 8636 ft 311 kts 99°
2026-04-23 18:01 41.15804 -95.63024 9297 ft 316 kts 99°
2026-04-23 18:02 41.15684 -95.60084 9918 ft 320 kts 99°
2026-04-23 18:02 41.15550 -95.57087 10249 ft 335 kts 100°
2026-04-23 18:02 41.15375 -95.53916 10418 ft 355 kts 100°
2026-04-23 18:02 41.15163 -95.50564 10628 ft 373 kts 101°
2026-04-23 18:03 41.14925 -95.47086 11055 ft 382 kts 101°
2026-04-23 18:03 41.14680 -95.43593 11748 ft 383 kts 101°
2026-04-23 18:03 41.14430 -95.40056 12442 ft 384 kts 101°
2026-04-23 18:03 41.14176 -95.36517 13113 ft 387 kts 101°
2026-04-23 18:04 41.13919 -95.32937 13730 ft 391 kts 101°
2026-04-23 18:04 41.13660 -95.29328 14300 ft 395 kts 101°
2026-04-23 18:04 41.13403 -95.25736 14840 ft 398 kts 101°
2026-04-23 18:04 41.13139 -95.22061 15419 ft 402 kts 101°
2026-04-23 18:05 41.12873 -95.18358 16056 ft 404 kts 101°
2026-04-23 18:05 41.12601 -95.14634 16621 ft 407 kts 101°
2026-04-23 18:05 41.12318 -95.10916 17145 ft 410 kts 101°
2026-04-23 18:05 41.12028 -95.07140 17672 ft 414 kts 101°
2026-04-23 18:06 41.11733 -95.03325 18185 ft 417 kts 101°
2026-04-23 18:06 41.11440 -94.99493 18667 ft 419 kts 101°
2026-04-23 18:06 41.11147 -94.95647 19159 ft 421 kts 101°
2026-04-23 18:06 41.10855 -94.91776 19568 ft 425 kts 101°
2026-04-23 18:07 41.10561 -94.87864 19981 ft 429 kts 101°
2026-04-23 18:07 41.10264 -94.83922 20442 ft 431 kts 101°
2026-04-23 18:07 41.09967 -94.79964 20944 ft 432 kts 101°
2026-04-23 18:07 41.09669 -94.75995 21385 ft 434 kts 100°
2026-04-23 18:08 41.09469 -94.73346 21673 ft 436 kts 100°
2026-04-23 18:08 41.09065 -94.67981 22300 ft 438 kts 100°
2026-04-23 18:08 41.08763 -94.63952 22716 ft 441 kts 100°
2026-04-23 18:08 41.08453 -94.59897 23103 ft 444 kts 100°
2026-04-23 18:09 41.08127 -94.55817 23476 ft 446 kts 100°
2026-04-23 18:09 41.07792 -94.51721 23834 ft 448 kts 100°
2026-04-23 18:09 41.07456 -94.47609 24173 ft 450 kts 100°
2026-04-23 18:09 41.07122 -94.43482 24532 ft 451 kts 100°
2026-04-23 18:10 41.06790 -94.39345 24885 ft 453 kts 100°
2026-04-23 18:10 41.06461 -94.35226 25191 ft 455 kts 100°
2026-04-23 18:10 41.06128 -94.31043 25524 ft 457 kts 100°
2026-04-23 18:10 41.05795 -94.26844 25884 ft 458 kts 100°
2026-04-23 18:11 41.05460 -94.22641 26197 ft 460 kts 100°
2026-04-23 18:11 41.05120 -94.18406 26466 ft 462 kts 99°
2026-04-23 18:11 41.04780 -94.14185 26783 ft 463 kts 99°
2026-04-23 18:11 41.04439 -94.09923 27081 ft 465 kts 99°
2026-04-23 18:12 41.04095 -94.05645 27324 ft 467 kts 99°
2026-04-23 18:12 41.03736 -94.01360 27603 ft 469 kts 99°
2026-04-23 18:12 41.03361 -93.97078 27948 ft 468 kts 99°
2026-04-23 18:12 41.03001 -93.92840 28086 ft 472 kts 99°
2026-04-23 18:13 41.02635 -93.88512 28374 ft 472 kts 99°
2026-04-23 18:13 41.02270 -93.84201 28833 ft 469 kts 99°
2026-04-23 18:13 41.01906 -93.79919 29295 ft 466 kts 99°
2026-04-23 18:13 41.01544 -93.75659 29632 ft 466 kts 99°
2026-04-23 18:14 41.01183 -93.71398 30002 ft 466 kts 99°
2026-04-23 18:14 41.00822 -93.67132 30302 ft 466 kts 99°
2026-04-23 18:14 41.00463 -93.62882 30643 ft 464 kts 99°
2026-04-23 18:14 41.00106 -93.58644 30977 ft 462 kts 99°
2026-04-23 18:15 40.99749 -93.54425 31296 ft 461 kts 100°
2026-04-23 18:15 40.99304 -93.50235 31566 ft 459 kts 104°
2026-04-23 18:15 40.98700 -93.46103 31846 ft 457 kts 105°
2026-04-23 18:15 40.98035 -93.41984 32133 ft 455 kts 106°
2026-04-23 18:16 40.97363 -93.37902 32387 ft 454 kts 106°
2026-04-23 18:16 40.96699 -93.33825 32642 ft 453 kts 106°
2026-04-23 18:16 40.96048 -93.29746 32857 ft 453 kts 106°
2026-04-23 18:17 40.94776 -93.21557 32961 ft 454 kts 105°
2026-04-23 18:17 40.94151 -93.17465 32951 ft 453 kts 105°
2026-04-23 18:17 40.92912 -93.09337 32907 ft 449 kts 105°
2026-04-23 18:18 40.91670 -93.01260 32849 ft 447 kts 105°
2026-04-23 18:18 40.90417 -92.93213 32804 ft 447 kts 105°
2026-04-23 18:19 40.89130 -92.85170 32799 ft 448 kts 106°
2026-04-23 18:19 40.87838 -92.77104 32826 ft 449 kts 105°
2026-04-23 18:20 40.86552 -92.69028 32853 ft 449 kts 105°
2026-04-23 18:20 40.85270 -92.61000 32860 ft 452 kts 105°
2026-04-23 18:21 40.83969 -92.52829 32886 ft 456 kts 105°
2026-04-23 18:21 40.82671 -92.44635 32879 ft 455 kts 105°
2026-04-23 18:22 40.81348 -92.36475 32865 ft 453 kts 105°
2026-04-23 18:22 40.80002 -92.28362 32828 ft 452 kts 105°
2026-04-23 18:23 40.77969 -92.16110 32817 ft 459 kts 105°
2026-04-23 18:24 40.75954 -92.03767 32813 ft 459 kts 104°
2026-04-23 18:25 40.74158 -91.92844 32817 ft 457 kts 105°
2026-04-23 18:25 40.72557 -91.83344 32819 ft 459 kts 104°
2026-04-23 18:26 40.71380 -91.76439 32849 ft 462 kts 104°
2026-04-23 18:26 40.69977 -91.68175 32894 ft 462 kts 104°
2026-04-23 18:27 40.68583 -91.59936 32944 ft 461 kts 104°
2026-04-23 18:27 40.67189 -91.51717 32993 ft 459 kts 104°
2026-04-23 18:28 40.65791 -91.43499 33047 ft 462 kts 104°
2026-04-23 18:28 40.64388 -91.35246 33037 ft 463 kts 104°
2026-04-23 18:29 40.62960 -91.27045 33039 ft 463 kts 104°
2026-04-23 18:29 40.61503 -91.18784 32838 ft 463 kts 105°
2026-04-23 18:30 40.60057 -91.10531 32843 ft 463 kts 104°
2026-04-23 18:30 40.58616 -91.02282 32845 ft 462 kts 104°
2026-04-23 18:31 40.57176 -90.94041 32844 ft 463 kts 104°
2026-04-23 18:31 40.55732 -90.85786 32869 ft 463 kts 104°
2026-04-23 18:32 40.54272 -90.77542 32855 ft 463 kts 105°
2026-04-23 18:32 40.52782 -90.69313 32866 ft 464 kts 105°
2026-04-23 18:33 40.51285 -90.61049 32874 ft 465 kts 105°
2026-04-23 18:33 40.49801 -90.52825 32875 ft 466 kts 105°
2026-04-23 18:34 40.48312 -90.44532 32866 ft 466 kts 105°
2026-04-23 18:34 40.46824 -90.36258 32952 ft 464 kts 105°
2026-04-23 18:35 40.45335 -90.27990 32920 ft 464 kts 105°
2026-04-23 18:35 40.43803 -90.19753 32873 ft 466 kts 106°
2026-04-23 18:36 40.42277 -90.11588 32888 ft 467 kts 106°
2026-04-23 18:36 40.40739 -90.03306 32888 ft 467 kts 105°
2026-04-23 18:37 40.39166 -89.95048 32877 ft 466 kts 102°
2026-04-23 18:37 40.37638 -89.86802 32905 ft 465 kts 101°
2026-04-23 18:38 40.36152 -89.78540 32914 ft 466 kts 101°
2026-04-23 18:38 40.34325 -89.70376 32913 ft 468 kts 105°
2026-04-23 18:39 40.32543 -89.62182 32944 ft 467 kts 101°
2026-04-23 18:39 40.31065 -89.53899 32981 ft 467 kts 100°
2026-04-23 18:40 40.29656 -89.45594 33009 ft 467 kts 100°
2026-04-23 18:40 40.28227 -89.37295 33029 ft 466 kts 100°
2026-04-23 18:41 40.26776 -89.29034 33036 ft 465 kts 102°
2026-04-23 18:41 40.25700 -89.25032 33035 ft 468 kts 113°
2026-04-23 18:41 40.24268 -89.21204 33035 ft 469 kts 115°
2026-04-23 18:42 40.21265 -89.13639 33017 ft 468 kts 115°
2026-04-23 18:42 40.18347 -89.06040 32945 ft 467 kts 114°
2026-04-23 18:43 40.15508 -88.98400 32932 ft 467 kts 114°
2026-04-23 18:43 40.12683 -88.90746 32929 ft 467 kts 114°
2026-04-23 18:44 40.09844 -88.83099 32942 ft 468 kts 114°
2026-04-23 18:44 40.06981 -88.75448 32992 ft 469 kts 114°
2026-04-23 18:45 40.04110 -88.67873 32934 ft 468 kts 114°
2026-04-23 18:45 40.01221 -88.60277 32933 ft 466 kts 114°
2026-04-23 18:46 39.98362 -88.52744 32939 ft 466 kts 114°
2026-04-23 18:46 39.95485 -88.45159 32961 ft 467 kts 114°
2026-04-23 18:47 39.92598 -88.37562 32954 ft 468 kts 114°
2026-04-23 18:47 39.89708 -88.29957 32954 ft 468 kts 114°
2026-04-23 18:48 39.86794 -88.22364 32951 ft 469 kts 114°
2026-04-23 18:48 39.83860 -88.14796 32958 ft 468 kts 114°
2026-04-23 18:49 39.80958 -88.07298 32984 ft 467 kts 114°
2026-04-23 18:49 39.78048 -87.99762 32997 ft 466 kts 114°
2026-04-23 18:50 39.75613 -87.93464 33025 ft 465 kts 114°
2026-04-23 18:50 39.72217 -87.84689 33060 ft 466 kts 114°
2026-04-23 18:51 39.69298 -87.77173 33079 ft 467 kts 114°
2026-04-23 18:51 39.66361 -87.69710 33089 ft 468 kts 115°
2026-04-23 18:52 39.63405 -87.62197 33080 ft 467 kts 115°
2026-04-23 18:52 39.60456 -87.54706 33062 ft 465 kts 115°
2026-04-23 18:53 39.57521 -87.47241 33045 ft 464 kts 115°
2026-04-23 18:53 39.54591 -87.39792 33061 ft 464 kts 115°
2026-04-23 18:54 39.51652 -87.32333 33089 ft 465 kts 115°
2026-04-23 18:54 39.48689 -87.24879 33083 ft 465 kts 115°
2026-04-23 18:55 39.45716 -87.17472 32996 ft 463 kts 115°
2026-04-23 18:55 39.42758 -87.10085 33006 ft 462 kts 115°
2026-04-23 18:56 39.40310 -87.03956 33015 ft 462 kts 115°
2026-04-23 18:56 39.36856 -86.95311 32994 ft 464 kts 115°
2026-04-23 18:57 39.33895 -86.87905 33028 ft 464 kts 116°
2026-04-23 18:57 39.30920 -86.80513 33048 ft 463 kts 116°
2026-04-23 18:58 39.27950 -86.73225 33067 ft 461 kts 116°
2026-04-23 18:58 39.24973 -86.65911 33090 ft 460 kts 116°
2026-04-23 18:59 39.22011 -86.58613 33096 ft 460 kts 116°
2026-04-23 18:59 39.19048 -86.51314 33101 ft 461 kts 116°
2026-04-23 19:00 39.16076 -86.43999 33079 ft 461 kts 116°
2026-04-23 19:00 39.13100 -86.36690 33058 ft 461 kts 116°
2026-04-23 19:01 39.10095 -86.29396 33039 ft 461 kts 116°
2026-04-23 19:01 39.07086 -86.22118 33019 ft 461 kts 116°
2026-04-23 19:02 39.04589 -86.16069 33102 ft 461 kts 116°
2026-04-23 19:02 39.01081 -86.07567 33098 ft 460 kts 116°
2026-04-23 19:03 38.98086 -86.00309 33088 ft 459 kts 116°
2026-04-23 19:03 38.95097 -85.93078 33095 ft 458 kts 116°
2026-04-23 19:04 38.92010 -85.85919 33096 ft 459 kts 119°
2026-04-23 19:04 38.88807 -85.78819 33110 ft 459 kts 117°
2026-04-23 19:05 38.85796 -85.71592 33118 ft 460 kts 115°
2026-04-23 19:05 38.82865 -85.64298 33133 ft 460 kts 115°
2026-04-23 19:06 38.79951 -85.57044 33128 ft 460 kts 115°
2026-04-23 19:06 38.77006 -85.49775 33129 ft 458 kts 116°
2026-04-23 19:07 38.73932 -85.42629 33134 ft 458 kts 119°
2026-04-23 19:07 38.70673 -85.35611 33141 ft 459 kts 118°
2026-04-23 19:08 38.67469 -85.28533 33109 ft 460 kts 118°
2026-04-23 19:08 38.64310 -85.21399 33114 ft 461 kts 117°
2026-04-23 19:09 38.61153 -85.14255 33105 ft 462 kts 117°
2026-04-23 19:09 38.57999 -85.07157 33104 ft 461 kts 117°
2026-04-23 19:10 38.55340 -85.01199 33106 ft 461 kts 117°
2026-04-23 19:10 38.52154 -84.94109 33094 ft 460 kts 118°
2026-04-23 19:11 38.48949 -84.87027 33104 ft 460 kts 118°
2026-04-23 19:11 38.45745 -84.79945 33110 ft 461 kts 118°
2026-04-23 19:12 38.42541 -84.72856 33102 ft 461 kts 118°
2026-04-23 19:12 38.39336 -84.65769 33121 ft 462 kts 118°
2026-04-23 19:13 38.36115 -84.58666 33122 ft 463 kts 117°
2026-04-23 19:13 38.32892 -84.51562 33114 ft 464 kts 118°
2026-04-23 19:14 38.29635 -84.44468 33126 ft 464 kts 118°
2026-04-23 19:14 38.26393 -84.37423 33107 ft 463 kts 118°
2026-04-23 19:15 38.23146 -84.30354 33124 ft 462 kts 118°
2026-04-23 19:15 38.19899 -84.23292 33134 ft 463 kts 117°
2026-04-23 19:16 38.16647 -84.16213 33147 ft 464 kts 117°
2026-04-23 19:16 38.13384 -84.09117 33158 ft 465 kts 117°
2026-04-23 19:17 38.08445 -83.98496 33161 ft 466 kts 118°
2026-04-23 19:17 38.05143 -83.91426 33160 ft 465 kts 118°
2026-04-23 19:18 38.01849 -83.84367 33155 ft 465 kts 117°
2026-04-23 19:18 37.98564 -83.77318 33146 ft 465 kts 117°
2026-04-23 19:19 37.93628 -83.66730 33111 ft 465 kts 117°
2026-04-23 19:20 37.88664 -83.56167 33115 ft 465 kts 118°
2026-04-23 19:20 37.85327 -83.49135 33121 ft 466 kts 118°
2026-04-23 19:21 37.80330 -83.38569 33143 ft 467 kts 117°
2026-04-23 19:22 37.76997 -83.31514 33148 ft 467 kts 118°
2026-04-23 19:22 37.71998 -83.20962 33149 ft 465 kts 118°
2026-04-23 19:23 37.68666 -83.14049 33157 ft 464 kts 119°
2026-04-23 19:24 37.63546 -83.03653 33140 ft 466 kts 117°
2026-04-23 19:24 37.58599 -82.93096 33126 ft 467 kts 117°
2026-04-23 19:25 37.51050 -82.79797 33149 ft 473 kts 134°
2026-04-23 19:26 37.43874 -82.71281 33149 ft 473 kts 134°
2026-04-23 19:27 37.32146 -82.56880 33132 ft 472 kts 133°
2026-04-23 19:28 37.22752 -82.45358 33117 ft 472 kts 133°
2026-04-23 19:29 37.15651 -82.36726 33151 ft 472 kts 133°
2026-04-23 19:30 37.08571 -82.28127 33143 ft 473 kts 133°
2026-04-23 19:31 37.01069 -82.20113 33154 ft 478 kts 148°
2026-04-23 19:31 36.95226 -82.16137 33124 ft 479 kts 150°
2026-04-23 19:32 36.89290 -82.12192 33117 ft 483 kts 150°
2026-04-23 19:32 36.83461 -82.08222 33115 ft 478 kts 149°
2026-04-23 19:33 36.77664 -82.04212 33085 ft 475 kts 149°
2026-04-23 19:33 36.68963 -81.98200 33100 ft 478 kts 149°
2026-04-23 19:34 36.63138 -81.94214 33104 ft 477 kts 149°
2026-04-23 19:35 36.54424 -81.88254 33157 ft 475 kts 149°
2026-04-23 19:35 36.48627 -81.84302 33155 ft 475 kts 149°
2026-04-23 19:36 36.42817 -81.80348 32892 ft 477 kts 150°
2026-04-23 19:36 36.39896 -81.78375 32438 ft 478 kts 150°
2026-04-23 19:36 36.36980 -81.76408 31932 ft 476 kts 150°
2026-04-23 19:36 36.34073 -81.74445 31393 ft 476 kts 150°
2026-04-23 19:37 36.31166 -81.72478 30833 ft 476 kts 149°
2026-04-23 19:37 36.28248 -81.70503 30265 ft 477 kts 149°
2026-04-23 19:37 36.25334 -81.68531 29611 ft 477 kts 150°
2026-04-23 19:37 36.22444 -81.66573 29096 ft 468 kts 150°
2026-04-23 19:38 36.19675 -81.64701 28917 ft 451 kts 150°
2026-04-23 19:38 36.16969 -81.62877 28728 ft 436 kts 150°
2026-04-23 19:38 36.14350 -81.61118 28551 ft 422 kts 150°
2026-04-23 19:38 36.11776 -81.59393 27824 ft 425 kts 150°
2026-04-23 19:39 36.09123 -81.57607 26857 ft 441 kts 151°
2026-04-23 19:39 36.06418 -81.55785 25968 ft 445 kts 151°
2026-04-23 19:39 36.03688 -81.53949 25106 ft 447 kts 152°
2026-04-23 19:39 36.00956 -81.52114 24274 ft 447 kts 152°
2026-04-23 19:40 35.98216 -81.50275 23377 ft 448 kts 152°
2026-04-23 19:40 35.95501 -81.48457 22435 ft 439 kts 152°
2026-04-23 19:40 35.92840 -81.46683 21547 ft 430 kts 152°
2026-04-23 19:40 35.90230 -81.44945 20720 ft 421 kts 152°
2026-04-23 19:41 35.87676 -81.43243 19927 ft 414 kts 152°
2026-04-23 19:41 35.85167 -81.41568 19301 ft 403 kts 152°
2026-04-23 19:41 35.82781 -81.39974 19191 ft 375 kts 152°
2026-04-23 19:41 35.80574 -81.38500 19100 ft 348 kts 153°
2026-04-23 19:42 35.78504 -81.37120 19012 ft 331 kts 153°
2026-04-23 19:42 35.76503 -81.35756 18772 ft 330 kts 152°
2026-04-23 19:42 35.74460 -81.34315 18416 ft 348 kts 151°
2026-04-23 19:42 35.72345 -81.32800 17923 ft 353 kts 150°
2026-04-23 19:43 35.70227 -81.31269 17376 ft 354 kts 150°
2026-04-23 19:43 35.68106 -81.29732 16834 ft 354 kts 151°
2026-04-23 19:43 35.65981 -81.28198 16297 ft 355 kts 151°
2026-04-23 19:43 35.63848 -81.26663 15760 ft 355 kts 152°
2026-04-23 19:44 35.61712 -81.25133 15229 ft 356 kts 152°
2026-04-23 19:44 35.59565 -81.23603 14707 ft 356 kts 152°
2026-04-23 19:44 35.57441 -81.22089 14178 ft 349 kts 153°
2026-04-23 19:44 35.55401 -81.20589 13850 ft 334 kts 151°
2026-04-23 19:45 35.53464 -81.19083 13267 ft 328 kts 150°
2026-04-23 19:45 35.51576 -81.17585 12610 ft 326 kts 149°
2026-04-23 19:45 35.49711 -81.16091 12266 ft 314 kts 149°
2026-04-23 19:45 35.47882 -81.14621 12055 ft 307 kts 149°
2026-04-23 19:46 35.46131 -81.13216 11819 ft 295 kts 149°
2026-04-23 19:46 35.44419 -81.11846 11504 ft 293 kts 150°
2026-04-23 19:46 35.42719 -81.10497 11229 ft 294 kts 149°
2026-04-23 19:46 35.41004 -81.09144 10904 ft 292 kts 152°
2026-04-23 19:47 35.39768 -81.08434 10675 ft 287 kts 169°
2026-04-23 19:47 35.37184 -81.08027 10241 ft 281 kts 180°
2026-04-23 19:47 35.35235 -81.07892 9905 ft 280 kts 180°
2026-04-23 19:47 35.33296 -81.07766 9542 ft 278 kts 180°
2026-04-23 19:48 35.31387 -81.07646 9285 ft 271 kts 180°
2026-04-23 19:48 35.29525 -81.07529 9069 ft 265 kts 180°
2026-04-23 19:48 35.27705 -81.07403 8857 ft 259 kts 180°
2026-04-23 19:48 35.25927 -81.07275 8638 ft 254 kts 180°
2026-04-23 19:49 35.24181 -81.07142 8432 ft 249 kts 180°
2026-04-23 19:49 35.22459 -81.06996 8227 ft 246 kts 179°
2026-04-23 19:49 35.20763 -81.06845 8014 ft 243 kts 180°
2026-04-23 19:49 35.19083 -81.06692 7815 ft 241 kts 179°
2026-04-23 19:50 35.17418 -81.06544 7621 ft 239 kts 179°
2026-04-23 19:50 35.15764 -81.06393 7423 ft 238 kts 179°
2026-04-23 19:50 35.14099 -81.06240 7256 ft 249 kts 179°
2026-04-23 19:50 35.12302 -81.06081 7096 ft 265 kts 179°
2026-04-23 19:51 35.10434 -81.05915 6935 ft 272 kts 179°
2026-04-23 19:51 35.08542 -81.05743 6749 ft 272 kts 179°
2026-04-23 19:51 35.06684 -81.05579 6566 ft 271 kts 179°
2026-04-23 19:51 35.04833 -81.05407 6369 ft 268 kts 179°
2026-04-23 19:52 35.03579 -81.05282 6228 ft 267 kts 178°
2026-04-23 19:52 35.01145 -81.05035 5950 ft 264 kts 178°
2026-04-23 19:52 34.99322 -81.04853 5747 ft 261 kts 178°
2026-04-23 19:52 34.97513 -81.04664 5530 ft 261 kts 178°
2026-04-23 19:53 34.95708 -81.04475 5336 ft 260 kts 179°
2026-04-23 19:53 34.94487 -81.04359 5223 ft 260 kts 178°
2026-04-23 19:53 34.92716 -81.04194 5123 ft 257 kts 178°
2026-04-23 19:53 34.90941 -81.04021 5057 ft 255 kts 178°
2026-04-23 19:54 34.89215 -81.03591 5013 ft 259 kts 153°
2026-04-23 19:54 34.87978 -81.02009 5040 ft 264 kts 114°
2026-04-23 19:54 34.87741 -80.99835 5063 ft 260 kts 86°
2026-04-23 19:54 34.87909 -80.97653 5042 ft 256 kts 84°
2026-04-23 19:55 34.88101 -80.95557 5027 ft 244 kts 84°
2026-04-23 19:55 34.88585 -80.93614 5017 ft 243 kts 52°
2026-04-23 19:55 34.89910 -80.92475 5039 ft 234 kts
2026-04-23 19:55 34.91502 -80.92490 5079 ft 230 kts 349°
2026-04-23 19:56 34.93090 -80.92740 5063 ft 231 kts 349°
2026-04-23 19:56 34.94687 -80.92938 5041 ft 230 kts 351°
2026-04-23 19:56 34.96287 -80.93090 5021 ft 230 kts 352°
2026-04-23 19:56 34.97857 -80.93230 5016 ft 220 kts 353°
2026-04-23 19:57 34.99368 -80.93329 4756 ft 220 kts 354°
2026-04-23 19:57 35.00908 -80.93444 4403 ft 224 kts 352°
2026-04-23 19:57 35.02472 -80.93575 3971 ft 225 kts 353°
2026-04-23 19:57 35.04006 -80.93691 3527 ft 218 kts 353°
2026-04-23 19:58 35.05484 -80.93794 3117 ft 208 kts 353°
2026-04-23 19:58 35.06913 -80.93875 2739 ft 203 kts 353°
2026-04-23 19:58 35.08314 -80.93965 2345 ft 200 kts 353°
2026-04-23 19:58 35.09678 -80.94051 2066 ft 195 kts 354°
2026-04-23 19:59 35.10997 -80.94168 1853 ft 184 kts 351°
2026-04-23 19:59 35.12187 -80.94331 1812 ft 166 kts 350°
2026-04-23 19:59 35.13356 -80.94478 1670 ft 173 kts 350°
2026-04-23 19:59 35.14515 -80.94597 1575 ft 162 kts 353°
2026-04-23 20:00 35.15633 -80.94697 1425 ft 160 kts 353°
2026-04-23 20:00 35.16743 -80.94795 1275 ft 155 kts 351°
2026-04-23 20:00 35.17797 -80.94893 1137 ft 149 kts 353°
2026-04-23 20:00 35.18822 -80.94987 967 ft 152 kts 354°
2026-04-23 20:01 35.19877 -80.95073 795 ft 150 kts 354°
2026-04-23 20:01 35.20866 -80.95157 738 ft 129 kts 354°
2026-04-23 20:01 35.21579 -80.95220 739 ft 76 kts 356°
2026-04-23 20:01 35.21877 -80.95217 742 ft 29 kts 15°
2026-04-23 20:02 35.22008 -80.95153 738 ft 13 kts 27°
2026-04-23 20:02 35.22041 -80.95084 735 ft 10 kts 117°
2026-04-23 20:02 35.21973 -80.95053 735 ft 11 kts 175°
2026-04-23 20:02 35.21891 -80.95039 734 ft 12 kts 154°
2026-04-23 20:03 35.21869 -80.94947 734 ft 10 kts 84°
2026-04-23 20:03 35.21875 -80.94874 733 ft 9 kts 84°
2026-04-23 20:03 35.21879 -80.94787 733 ft 11 kts 91°
2026-04-23 20:03 35.21868 -80.94710 733 ft 7 kts 108°
2026-04-23 20:04 35.21852 -80.94655 732 ft 6 kts 111°
2026-04-23 20:04 35.21847 -80.94642 733 ft 0 kts 111°
2026-04-23 20:04 35.21845 -80.94634 733 ft 2 kts 111°
2026-04-23 20:04 35.21838 -80.94613 732 ft 4 kts 111°
2026-04-23 20:05 35.21833 -80.94599 732 ft 0 kts 111°